CZ-6A DEB, 61469

Orbit data source: Space-Track

CZ-6A DEB, 61469 is space debris in LEO originally from a launch on Tue, 06 Aug 2024 UTC launched from the Taiyaun Space Center, China (TSC). Debris objects in space refer to the collection of defunct objects orbiting the Earth. Examples of debris include non-operational satellites, rocket bodies, and fragments generated from explosions, collisions, or faulty payload assembly.

Loading next visibility...
Identifier
61469, 2024-140AAB
Orbit
LEO
Country
Flag of CNCN / PRC
Related business
Manufacturer
SAST
Mission
Spacecraft
Bus & Motor
Unknown
Mass
Unknown
Launch date (UTC)
2024-08-06 (2 years ago)
Launch vehicle
Unknown
Launch site
Taiyaun Space Center, China (TSC)
Object type
Payload
Rocket body
Debris
Shape & HBR
Unknown shape, 0.1 m
Radar Cross Section
Small (<0.1 m²)

Expand to show TLE details & history
Last TLE update: 1 day ago

TLE from 1 day ago
0 CZ-6A DEB
1 61469U 24140AAB 26118.12376646  .00007348  00000-0  92208-3 0  9996
2 61469  90.0435 355.8409 0124260 330.3486  29.0729 14.76714112 90254
Epoch: 2026-04-28T02:58Z
TLE epoch observation values (Epoch: 2026-04-28T02:58:13.422Z)
Latitude
0.00005°
Longitude
95.18138°
Altitude
566.879 km
Speed
7.618 km/s
True Right ascension
23h 43m 21s
True Declination
0° 00' 00"
Sunlit
Object was in daylight at epoch
Visualization orbit readout
Latitude
Unknown
Longitude
Unknown
Altitude
Unknown
Speed
Unknown
Apparent Right ascension
Unknown
Apparent Declination
Unknown
Sunlit
N/A
Visualization observer readout
Local Sidereal Time
10:06:37
Azimuth
Unknown
Elevation
Unknown
Doppler factor
Unknown
Orbital elements
Apogee altitude
723.747 km
Perigee altitude
549.417 km
Semi-major axis
7,014.719 km
Eccentricity
0.01243
Inclination
90.0435°
RAAN
355.8409°
Arg. of periapsis
330.3486°
True anomaly
29.77431°
Mean anomaly
29.0729°
Eccentric anomaly
29.42265°
Mean motion
3.69426 °/min
Orbital period
97.45 mins
BSTAR
0.00092208
Loading maneuver chart data...
Computing Atmospheric mass density...
Loading historical data...
Loading historical data...
Loading historical data...
Loading historical data...
Loading historical data...
Loading historical data...
Loading historical data...

Documentation

Showing up to 5 results
|